Regional Weather Roundup
Issued by NWS

Home | Current Version | Previous Version | Text Only | Print | Product List | Glossary Off
Versions: 1 2 3 4 5 6 7 8 9 10 11 12 13 14 15 16 17 18 19 20 21 22 23 24 25 26 27 28 29 30 31 32 33 34 35 36 37 38 39 40 41 42 43 44 45 46 47 48 49 50

102
ASUS43 KMKX 141200
RWRWI

WISCONSIN REGIONAL WEATHER ROUNDUP
NATIONAL WEATHER SERVICE MILWAUKEE/SULLIVAN WI
600 AM CST SUN FEB 14 2016

NOTE: "FAIR" INDICATES FEW OR NO CLOUDS BELOW 12,000 FEET WITH NO
SIGNIFICANT WEATHER AND/OR OBSTRUCTIONS TO VISIBILITY.

WIZ001-002-006>008-014>016-023>028-141300-
NORTHWEST WISCONSIN

CITY           SKY/WX    TMP DP  RH WIND       PRES   REMARKS
SUPERIOR ARPT  CLOUDY    -5 -10  77 CALM      30.21F
ASHLAND        CLOUDY   -19 -23  81 E5        30.24F WCI -32
6HR MIN TEMP: -20; 6HR MAX TEMP: -13;

HAYWARD        CLOUDY     1 -12  54 SE6       30.17F WCI -10
6HR MIN TEMP: -18; 6HR MAX TEMP:   1;

SIREN          CLOUDY     6  -8  51 SE9       30.15F WCI  -8
CUMBERLAND     CLOUDY     1 -11  55 SE9       30.15F WCI -14
RICE LAKE      CLOUDY     2  -9  58 SE12      30.20F WCI -14
CHETEK         CLOUDY     2  -9  59 MISG      30.20F
LADYSMITH      CLOUDY    -4 -13  65 E6        30.23F WCI -17
EAU CLAIRE     CLOUDY     2 -10  57 E6        30.20F WCI  -9
6HR MIN TEMP:  -9; 6HR MAX TEMP:   3;

MENOMONIE      CLOUDY     6  -6  58 E8        30.20F WCI  -7
NEW RICHMOND   CLOUDY     6  -6  58 SE8       30.14F WCI  -7
OSCEOLA        FLURRIES   8  -4  59 SE13      30.16F WCI  -8
$$

WIZ003>005-009-010-017-018-141300-
NORTH CENTRAL WISCONSIN

CITY           SKY/WX    TMP DP  RH WIND       PRES   REMARKS
MANITOWISH WTR PTCLDY   -22 -28  75 CALM      30.20F
ARBOR VITAE    CLOUDY   -13 -19  76 SE3       30.21F
WOODRUFF       CLOUDY   -13 -19  76 SE3       30.21F
RHINELANDER    CLOUDY   -18 -24  74 CALM      30.23S
6HR MIN TEMP: -19; 6HR MAX TEMP: -13;

EAGLE RIVER    CLOUDY   -22 -29  69 CALM      30.22F
LAND O LAKES   CLOUDY   -26 -33  70 CALM      30.22F
PHILLIPS       CLOUDY   -22 -28  74 CALM      30.21S
TOMAHAWK       PTCLDY   -24 -30  73 CALM      30.25S
MEDFORD        CLOUDY    -6 -14  68 E7        30.20F WCI -20
MERRILL        PTCLDY   N/A N/A N/A CALM      30.28F
$$

WIZ029-030-035-036-043>047-141300-
CENTRAL WISCONSIN

CITY           SKY/WX    TMP DP  RH WIND       PRES   REMARKS
WAUSAU         CLOUDY   -12 -18  74 E5        30.27F WCI -24
6HR MIN TEMP: -14; 6HR MAX TEMP:  -8;

MOSINEE        CLEAR     -8 -15  71 E7        30.27F WCI -22
MARSHFIELD     CLOUDY    -6 -14  68 E6        30.23F WCI -19
6HR MIN TEMP:  -8; 6HR MAX TEMP:  -4;

STEVENS POINT  CLOUDY   -17 -22  76 CALM      30.30F
WAUPACA        CLOUDY   -12 -19  71 CALM      30.35F
WAUTOMA        NOT AVBL
WISC RAPIDS    PTCLDY    -3 -13  62 SE6       30.29F WCI -15
6HR MIN TEMP: -10; 6HR MAX TEMP:  -3;

CAMP DOUGLAS   NOT AVBL
$$

WIZ011>013-019>022-031-037>040-048>050-141300-
NORTHEAST WISCONSIN

CITY           SKY/WX    TMP DP  RH WIND       PRES   REMARKS
ANTIGO         PTCLDY   -15 -20  77 S3        30.27R
SHAWANO        CLOUDY    -8 -12  80 CALM      30.37R
OCONTO         CLOUDY   -14 -19  79 CALM      30.39R
STURGEON BAY   CLOUDY    -2 -11  65 CALM      30.38S
6HR MIN TEMP:  -4; 6HR MAX TEMP:   1;

GREEN BAY      CLOUDY   -12 -16  82 W3        30.37S
6HR MIN TEMP: -12; 6HR MAX TEMP:  -4;

MANITOWOC      NOT AVBL
APPLETON       CLEAR     -2 -11  65 CALM      30.33S
CLINTONVILLE   CLOUDY   -11 -17  77 CALM      30.36S
OSHKOSH        CLOUDY    -5 -13  68 CALM      30.34F
6HR MIN TEMP:  -8; 6HR MAX TEMP:  -1;

$$

WIZ032>034-041-042-053>061-141300-
SOUTHWEST WISCONSIN

CITY           SKY/WX    TMP DP  RH WIND       PRES   REMARKS
LA CROSSE      CLOUDY    11  -3  53 E10       30.22F WCI  -3
6HR MIN TEMP:   3; 6HR MAX TEMP:  11;

SPARTA         CLOUDY     8  -3  61 E7        30.25F WCI  -4
VIROQUA        CLOUDY     8  -2  64 SE14      30.19S WCI  -9
BOSCOBEL       FLURRIES  10   1  67 NE6       30.24F WCI   0
6HR MIN TEMP:   0; 6HR MAX TEMP:  10; 6HR PCP: TRACE;

PRAIRIE DU CHI LGT SNOW  13   6  73 E10       30.22F WCI   0
PLATTEVILLE    CLOUDY    13   8  81 E16       30.21F WCI  -4
$$

WIZ056-057-062-063-064-067-068-141300-
SOUTH CENTRAL WISCONSIN

CITY           SKY/WX    TMP DP  RH WIND       PRES   REMARKS
REEDSBURG      CLOUDY     4  -5  66 CALM      30.28F
BARABOO/DELLS  CLOUDY     1  -7  69 N3        30.28S
LONE ROCK      NOT AVBL
MINERAL POINT  FLURRIES  14   3  62 SE14      30.22F WCI  -1
MADISON        CLOUDY     9  -2  61 SE7       30.30F WCI  -2
6HR MIN TEMP:   4; 6HR MAX TEMP:   9;

MIDDLETON      CLOUDY    11   0  62 SE9       30.29F WCI  -2
WATERTOWN      CLOUDY     2  -5  71 E6        30.33F WCI  -9
MONROE         CLOUDY    12   3  67 SE8       30.26F WCI   1
JANESVILLE     CLOUDY    14   1  57 SE8       30.31F WCI   3
$$

WIZ051-052-058>065-066-070>072-141300-
SOUTHEAST WISCONSIN

CITY           SKY/WX    TMP DP  RH WIND       PRES   REMARKS
MILWAUKEE      MOCLDY     8  -1  66 CALM      30.36F
6HR MIN TEMP:   2; 6HR MAX TEMP:   8;

WAUKESHA       CLEAR     -2  -8  78 CALM      30.35F
MILWAUKEE/TIMM PTCLDY     1  -6  71 CALM      30.37F
RACINE         CLOUDY     9  -1  64 SW8       30.38F WCI  -3
6HR MIN TEMP:   1; 6HR MAX TEMP:  10;

BURLINGTON     CLOUDY    -1  -5  84 CALM      30.35F
KENOSHA        PTCLDY     7  -2  66 S5        30.36F WCI  -2
6HR MIN TEMP:   1; 6HR MAX TEMP:   7;

FOND DU LAC    CLOUDY    -3 -11  68 S3        30.34F
6HR MIN TEMP:  -9; 6HR MAX TEMP:  -3; 6HR PCP: TRACE;

SHEBOYGAN      CLOUDY    -4 -11  72 CALM      30.36S
6HR MIN TEMP:  -6; 6HR MAX TEMP:  -1;

WEST BEND      CLOUDY    -4  -9  77 CALM      30.35F
JUNEAU         CLOUDY    -1  -8  69 SE9       30.33F WCI -16
$$

LSZ147-162-141300-
LAKE SUPERIOR

STATION/POSITION TIME  TEMP    WIND        PRES    WAVE
                       AIR SEA DIR/SP/G            HT/PER
                 (UTC) (F)     (DEG/KT/KT) (MB)    (FT/S)
DEVILS ISLAND    1100    5     160/  7/  8 1026.9F
$$

LMZ867-665-643>646-141300-
LAKE MICHIGAN

STATION/POSITION TIME  TEMP    WIND        PRES    WAVE
                       AIR SEA DIR/SP/G            HT/PER
                 (UTC) (F)     (DEG/KT/KT) (MB)    (FT/S)
CHAMBERS ISLAND  1100   -4      CALM  /  2 1028.8S
SISTER BAY       1104   -2        CALM       N/A
ALGOMA LAKESHORE 1041             CALM       N/A
KEWAUNEE LAKESHO 1100   -4     300/  5/  6 1027.9F
SHEBOYGAN LAKESH 1100    8     260/  4/  5 1030.4F
PORT WASHINGTON  1140    6     250/  4/  5 1029.5F
MILWAUKEE LAKESH 1110   12     300/  3/  3   N/A
KENOSHA   LAKESH 1100   11     230/  8/ 11 1028.8S
$$

TC  - TEMPERATURE IN CELSIUS
VSB - VISIBILITY IN STATUTE MILES
WCI - WIND CHILL INDEX
HX  - HEAT INDEX





USA.gov is the U.S. government's official web portal to all federal, state and local government web resources and services.